ATLAS 5 CENTAUR DEB, 55850

Orbit data source: Space-Track

ATLAS 5 CENTAUR DEB, 55850 is space debris in HEO originally from a launch on Wed, 17 Oct 2018 UTC launched from the Air Force Eastern Test Range (AFETR). Debris objects in space refer to the collection of defunct objects orbiting the Earth. Examples of debris include non-operational satellites, rocket bodies, and fragments generated from explosions, collisions, or faulty payload assembly.

Loading next visibility...
Identifier
55850, 2018-079HC
Orbit
HEO
Country
Flag of USUS
Related business
Flag of USUnited Launch Alliance/Lockheed Martin (US)
Manufacturer
ULA Decatur
Mission
Spacecraft
Bus & Motor
Unknown
Mass
Unknown
Launch date (UTC)
2018-10-17 (7 years ago)
Launch vehicle
Unknown
Launch site
Air Force Eastern Test Range (AFETR)
Object type
Payload
Rocket body
Debris
Shape & HBR
Unknown shape, 1.1 m
Radar Cross Section
RCS unknown

Expand to show TLE details & history
Last TLE update: 13 hours ago

TLE from 13 hours ago
0 ATLAS 5 CENTAUR DEB
1 55850U 18079HC  26036.28400269 -.00000161  00000-0  00000+0 0  9994
2 55850  13.3864  39.4580 5071117 304.3869  17.3629  1.79264548 22631
Epoch: 2026-02-05T06:48Z
TLE epoch observation values (Epoch: 2026-02-05T06:48:57.832Z)
Latitude
-0.00002°
Longitude
161.85479°
Altitude
10,144.121 km
Speed
5.859 km/s
True Right ascension
02h 38m 08s
True Declination
0° 00' 00"
Sunlit
Object was in daylight at epoch
Visualization orbit readout
Latitude
Unknown
Longitude
Unknown
Altitude
Unknown
Speed
Unknown
Apparent Right ascension
Unknown
Apparent Declination
Unknown
Sunlit
N/A
Visualization observer readout
Local Sidereal Time
21:25:01
Azimuth
Unknown
Elevation
Unknown
Doppler factor
Unknown
Orbital elements
Apogee altitude
36,765.638 km
Perigee altitude
7,731.674 km
Semi-major axis
28,626.793 km
Eccentricity
0.50711
Inclination
13.3864°
RAAN
39.458°
Arg. of periapsis
304.3869°
True anomaly
55.25363°
Mean anomaly
17.3629°
Eccentric anomaly
33.32596°
Mean motion
0.44811 °/min
Orbital period
803.38 mins
BSTAR
0
Loading maneuver chart data...
Computing Atmospheric mass density...

Documentation

Showing up to 5 results
|